053  
ASUS41 KPHI 182213  
RWRPHI  
 
REGIONAL WEATHER ROUNDUP  
NATIONAL WEATHER SERVICE MOUNT HOLLY NJ  
600 PM EDT THU JUL 18 2019  
 
NOTE: "FAIR" INDICATES FEW OR NO CLOUDS BELOW 12,000 FEET WITH NO  
SIGNIFICANT WEATHER AND/OR S TO VISIBILITY
.  
 
* = STATION DOES NOT REPORT PRECIPITATION (E.G. RAIN, SNOW, ETC.)  
OR FOG.
 
 
NJZ015>026-182300-  
SOUTHERN NEW JERSEY  
 
CITY SKY/WX TMP DP RH WIND PRES REMARKS
 
POMONA PTSUNNY 79 74 84 CALM 29.87S  
WILDWOOD* PTSUNNY 88 77 69 S5 29.85S HX 100  
MILLVILLE CLOUDY 82 75 79 N10 29.86R  
WRIGHTSTOWN LGT RAIN 77 77 100 CALM 29.84F  
MOUNT HOLLY PTSUNNY 78 75 90 E3 29.86F  
TRENTON CLOUDY 78 75 90 SE7 29.86R  
 

 
NJZ001>014-182300-  
NORTHERN NEW JERSEY  
 
CITY SKY/WX TMP DP RH WIND PRES REMARKS
 
SUSSEX CLOUDY 78 72 81 NE6 29.90R  
ANDOVER* N/A 79 74 84 N5 29.90R  
MORRISTOWN CLOUDY 79 77 94 NE6 29.88R  
NEWARK CLOUDY 80 73 79 NE13 29.87R  
TETERBORO CLOUDY 76 71 85 E9 29.88R  
CALDWELL CLOUDY 79 76 90 E8 29.89R  
SOMERVILLE HVY RAIN 77 76 96 NW5 29.86R VSB 1  
ALLAIRE* RAIN 76 74 93 N3 29.89S  
TOMS RIVER* LGT RAIN N/A N/A N/A E3 29.87R  
 

 
PAZ043-044-047-054-055-060>062-066>071-182300-  
EASTERN PENNSYLVANIA  
 
CITY SKY/WX TMP DP RH WIND PRES REMARKS
 
PHILADELPHIA CLOUDY 81 75 82 CALM 29.86S  
NORTH PHILA LGT RAIN 80 75 84 SE5 29.87S  
BLUE BELL* FAIR 78 77 97 N3 29.86F  
DOYLESTOWN CLOUDY 79 75 87 CALM 29.87S  
QUAKERTOWN* MOSUNNY 82 77 83 CALM 29.88 HX 91  
PERKASIE* FAIR 79 79 100 CALM 29.89R  
POTTSTOWN PTSUNNY 79 77 94 CALM 29.89R  
LANCASTER FAIR 88 75 65 N6 29.86S HX 97  
COATESVILLE FAIR 81 77 89 CALM 29.89S  
WEST CHESTER MOCLDY 77 73 88 CALM 29.87S  
READING PTSUNNY 86 77 74 SW3 29.85S HX 97  
ALLENTOWN LGT RAIN 82 76 81 NE6 29.87R  
QN CITY/ALNTWN LGT RAIN 81 77 89 NE9 29.89R  
MOUNT POCONO CLOUDY 73 72 96 E6 29.96S  
HAZLETON N/A N/A N/A N/A MISG N/A  
LEHIGHTON MOCLDY 82 72 69 NE5 29.89R  
WILKES BARRE PTSUNNY 82 72 71 VRB5 29.90S  
 

 
DEZALL-MDZ008-012-015-019-020-182300-  
DELAWARE AND EASTERN MARYLAND  
 
CITY SKY/WX TMP DP RH WIND PRES REMARKS
 
WILMINGTON LGT RAIN 82 77 84 NW3 29.86R HX 90  
DOVER PTSUNNY 91 75 59 SW10 29.84R HX 101  
CHESWOLD MOCLDY 88 75 66 W6G13 29.85S HX 97  
GEORGETOWN FAIR 92 76 59 SW12 29.85S HX 104  
EASTON MOSUNNY 91 77 62 SW6 29.89S HX 105  
STEVENSVILLE PTSUNNY 91 77 62 W7 29.85S HX 105  
ABERDEEN PTSUNNY 81 77 89 CALM 29.85S FOG  
PATUXENT PTSUNNY 93 74 53 W6 29.85 HX 103  
OCEAN CITY FAIR 86 79 79 S8 29.86S HX 99  
WALLOPS ISLAND FAIR 87 78 74 S10 29.87R HX 100  
CAMBRIDGE PTSUNNY 91 75 59 W7 29.85S HX 102  
SALISBURY FAIR 90 75 61 SW7 29.85S HX 100  
 

 
PAZ001-021-NYZ056-072-MDZ011-DCZ001-182300-  
OTHER NEARBY LOCATIONS  
 
CITY SKY/WX TMP DP RH WIND PRES REMARKS
 
HARRISBURG FAIR 90 75 61 CALM 29.84S HX 100  
STATE COLLEGE MOSUNNY 86 70 58 W10 29.92S HX 90  
WILLIAMSPORT FAIR 86 72 62 S5 29.84F HX 92  
BINGHAMTON FAIR 82 68 62 CALM 29.93S  
NEW YORK CITY CLOUDY 74 71 91 VRB7 29.92  
BALTIMORE PTSUNNY 89 74 60 VRB3 29.85S HX 98  
WASHINGTON DC PTSUNNY 91 71 51 NW10 29.85F HX 97  
 

 
 
 
CLICK HERE TO GO TO PREVIOUS BULLETINS.

The Nexlab PA Page
The Nexlab NJ Page
The Nexlab DE Page
The Nexlab MD Page Main Text Page